Starlink 11123

operational
NORAD ID: 59948 Int'l Des: 2024-107 Owner: SPXS Country: US Constellation: starlink
LEOCIRCULAR

About Starlink 11123

Description loading...

Live Position

Loading 3D Globe...

Upcoming Passes

Altitude History

Altitude vs Time

uPlot chart will show altitude changes over time

Two-Line Element Set

1 59948U 24107D 25260.63884418 .00002269 00000-0 23562-4 0 9997
2 59948 53.1589 24.5435 0001027 97.9873 262.1261 15.69733394 75028
Epoch: Sep 17, 2025 • Age: 26 hours

Current Status

Altitude 365.0 km
Velocity 7.70 km/s
Sub-Earth Point 50.82°N, 177.07°W
Launch Date Jun 5, 2024
Age 1.2 years
Type internet

Technical Details

Classification Payload
Mass 960.00 kg
Dry Mass 910.00 kg
Total Mass 960.00 kg
Length 0.30 m
Diameter 4.10 m
Span 29.00 m
Shape Box + pan
Manufacturer SPXS
Bus Type Starlink V2MD
Phase Status In Orbit
Owner/State SPXS/US

Large Constellations

Loading constellations...